Location: Seasalter
(51.3333°N, 1.0167°E)
Time: 13:14:07
(UTC+00:00)

Cosmos 2112 Rocket - Pass Details

Date: 26 September 2023
Orbit: 755 x 786 km, 74.0° (Epoch: 28 November)

Event Time Altitude Azimuth Distance (km) Brightness Sun altitude
Rises 03:43:31 0° 331° (NNW) 3,285 7.2 -19.7°
Reaches altitude 10° 03:46:01 10° 324° (NW) 2,354 6.4 -19.3°
Maximum altitude 03:51:01 42° 255° (WSW) 1,120 4.3 -18.6°
Drops below altitude 10° 03:55:59 10° 186° (S) 2,340 6.2 -17.9°
Sets 03:58:28 0° 180° (S) 3,262 7.0 -17.5°
